Weather History for Clearfield, PA

Change the Weather History Date:

Monday, June 16, 2014

  Actual Average (KDUJ) Record (KDUJ)
Temperature  
Mean Temperature 65 °F 65 °F  
Max Temperature 84 °F 75 °F 89 °F (1967)
Min Temperature 48 °F 54 °F 42 °F (1964)
Degree Days  
Heating Degree Days 0 3  
Month to date heating degree days 63  
Since 1 June heating degree days 63  
Since 1 July heating degree days 6865  
Cooling Degree Days 0 2  
Month to date cooling degree days 25  
Year to date cooling degree days 48  
Since 1 June cooling degree days 25  
Growing Degree Days 15 (Base 50)    
Moisture  
Dew Point 60 °F    
Average Humidity 79    
Maximum Humidity 100    
Minimum Humidity 54    
Precipitation  
Precipitation 0.04 in 0.16 in 1.24 in (2011)
Month to date precipitation 2.56  
Sea Level Pressure  
Sea Level Pressure 30.12 in    
Wind  
Wind Speed 4 mph (WSW)    
Max Wind Speed 15 mph    
Max Gust Speed 21 mph    
Visibility 9 miles    
Events Rain , Thunderstorm    
T = Trace of Precipitation, MM = Missing Value Source: NWS Daily Summary

Daily Weather History Graph

Daily Weather History Graph

Search for Another Location

Airport:

Trip Planner

Search our weather history database for the weather conditions in past years. The results will help you decide how hot, cold, wet, or windy it might be!

Date:

Astronomy

Jun. 16, 2014 Rise Set
Actual Time 5:40 AM EDT 8:48 PM EDT
Civil Twilight 5:07 AM EDT 9:21 PM EDT
Nautical Twilight 4:24 AM EDT 10:04 PM EDT
Astronomical Twilight 3:33 AM EDT 10:55 PM EDT
Moon 11:36 PM EDT (6/16) 9:44 AM EDT (6/16)
Length of Visible Light 16h 14m
Length of Day
15h 07m
Waning Gibbous, 83% of the Moon is Illuminated
Jun 16
Waning Gibbous
Jun 19
Last Quarter
Jun 27
New
Jul 5
First Quarter
Jul 12
Full

Hourly Weather History & Observations

Time (EDT) Temp. Heat Index Dew Point Humidity Pressure Visibility Wind Dir Wind Speed Gust Speed Precip Events Conditions
12:54 AM 53.1 °F - 48.0 °F 83% 30.15 in 10.0 mi North 4.6 mph - N/A   Clear
1:54 AM 51.1 °F - 48.0 °F 89% 30.15 in 10.0 mi Calm Calm - N/A   Clear
2:54 AM 51.1 °F - 48.0 °F 89% 30.15 in 10.0 mi Calm Calm - N/A   Clear
3:54 AM 51.1 °F - 48.9 °F 92% 30.14 in 10.0 mi Calm Calm - N/A   Clear
4:47 AM 50.0 °F - 50.0 °F 100% 30.16 in 7.0 mi Calm Calm - N/A   Partly Cloudy
4:54 AM 48.9 °F - 48.0 °F 97% 30.15 in 10.0 mi NNW 3.5 mph - N/A   Clear
5:54 AM 50.0 °F - 48.0 °F 93% 30.16 in 10.0 mi North 4.6 mph - N/A   Mostly Cloudy
6:54 AM 52.0 °F - 50.0 °F 93% 30.17 in 10.0 mi Calm Calm - N/A   Clear
7:54 AM 57.0 °F - 53.1 °F 87% 30.16 in 10.0 mi Calm Calm - N/A   Scattered Clouds
8:54 AM 62.1 °F - 55.9 °F 80% 30.17 in 10.0 mi Calm Calm - N/A   Partly Cloudy
9:54 AM 68.0 °F - 55.0 °F 63% 30.16 in 10.0 mi Variable 3.5 mph - N/A   Clear
10:54 AM 73.0 °F - 59.0 °F 61% 30.15 in 10.0 mi SSW 8.1 mph - N/A   Clear
11:54 AM 77.0 °F - 61.0 °F 58% 30.14 in 10.0 mi WSW 5.8 mph - N/A   Scattered Clouds
12:54 PM 80.1 °F 81.5 °F 63.0 °F 56% 30.13 in 10.0 mi Variable 6.9 mph - N/A   Scattered Clouds
1:54 PM 82.0 °F 83.8 °F 64.9 °F 56% 30.12 in 10.0 mi SW 11.5 mph 17.3 mph N/A   Clear
2:54 PM 82.0 °F 83.8 °F 64.9 °F 56% 30.10 in 10.0 mi SW 9.2 mph - N/A   Scattered Clouds
3:54 PM 82.9 °F 84.6 °F 64.9 °F 54% 30.08 in 10.0 mi WSW 8.1 mph - N/A   Clear
4:54 PM 82.9 °F 85.0 °F 66.0 °F 56% 30.06 in 10.0 mi WSW 10.4 mph - N/A   Partly Cloudy
5:54 PM 80.1 °F 82.1 °F 66.0 °F 62% 30.06 in 10.0 mi WSW 4.6 mph - N/A   Mostly Cloudy
6:41 PM 79.0 °F - 66.0 °F 64% 30.09 in 10.0 mi WNW 6.9 mph - N/A Thunderstorm Scattered Clouds
6:54 PM 79.0 °F - 64.9 °F 62% 30.07 in 10.0 mi WNW 10.4 mph 16.1 mph N/A   Mostly Cloudy
7:22 PM 77.0 °F - 66.0 °F 69% 30.09 in 10.0 mi WNW 5.8 mph - N/A Thunderstorm Mostly Cloudy
7:45 PM 75.9 °F - 66.9 °F 74% 30.10 in 10.0 mi West 6.9 mph - 0.00 in   Mostly Cloudy
7:54 PM 75.9 °F - 66.9 °F 74% 30.09 in 10.0 mi WSW 5.8 mph - 0.00 in   Overcast
8:28 PM 73.9 °F - 66.9 °F 79% 30.11 in 10.0 mi SSW 15.0 mph 20.7 mph N/A Thunderstorm Mostly Cloudy
8:54 PM 71.1 °F - 68.0 °F 90% 30.09 in 3.0 mi SSW 5.8 mph - 0.04 in Rain , Thunderstorm Rain
9:10 PM 70.0 °F - 68.0 °F 93% 30.10 in 10.0 mi WSW 5.8 mph - 0.00 in   Mostly Cloudy
9:54 PM 69.1 °F - 68.0 °F 96% 30.09 in 8.0 mi SW 9.2 mph - 0.00 in   Partly Cloudy
10:54 PM 66.9 °F - 66.9 °F 100% 30.08 in 5.0 mi SSW 3.5 mph - N/A   Clear
11:14 PM 66.0 °F - 66.0 °F 100% 30.11 in 2.5 mi South 3.5 mph - N/A   Clear
11:24 PM 66.0 °F - 66.0 °F 100% 30.12 in 3.0 mi South 3.5 mph - N/A   Clear
11:54 PM 66.0 °F - 64.9 °F 96% 30.09 in 3.0 mi Calm Calm - N/A   Partly Cloudy